[[{"header":{"parameterUnit":"m.s-1","parameterCategory":2,"la1":30.2991,"la2":30.254,"lo1":-89.0895,"lo2":-89.0444,"dy":0.0017,"dx":0.0017,"nx":28,"ny":28,"refTime":"2025-07-03T03:00:00:Z","depth":"0","parameterNumber":2,"parameterNumberName":"U-component_of_CURRENTS"},"data":[0,0,0,0,0,0,0,0,0,0,0,0,0,0,0,0,0,0,0,0,0,0,0,0,0,0,0,0,0,0,0,0,0,0,0,0,0,0,0,0,0,0,0,0,0,0,0,0,0,0,0,0,0,0,0,0,0,0,-0.2182,-0.2182,0,-0.2197,-0.2197,-0.2197,-0.2188,-0.2188,-0.2188,-0.2188,-0.2126,-0.2125,-0.2124,0,0,0,0,0,0,0,0,0,0,0,0,0,-0.2198,-0.2197,-0.2182,-0.2182,-0.2183,-0.2197,-0.2197,-0.2197,-0.2188,-0.2188,-0.2188,-0.2187,-0.2127,-0.2125,-0.2124,0,0,0,0,0,0,0,0,0,0,0,0,0,-0.2198,-0.2197,-0.2182,-0.2181,-0.2181,-0.2197,-0.2197,-0.2197,-0.2188,-0.2188,-0.2188,-0.2187,-0.2127,-0.2125,-0.2123,-0.2119,0,0,-0.2117,-0.2116,0,0,0,0,0,0,0,0,-0.2198,-0.2197,-0.2181,-0.2181,-0.2182,-0.2192,-0.218,-0.2167,-0.2189,-0.2184,-0.2188,-0.2187,-0.2143,-0.2139,-0.2142,-0.2116,-0.2113,-0.2117,-0.2116,-0.2115,-0.2114,0,0,0,0,0,0,0,-0.2198,-0.2197,-0.2186,-0.2181,-0.2182,-0.2198,-0.2197,-0.2178,-0.2163,-0.2184,-0.2184,-0.2189,-0.2142,-0.2144,-0.214,-0.2112,-0.2117,-0.2115,-0.2114,-0.2113,-0.2063,-0.2063,0,0,0,0,0,0,-0.2197,-0.2197,-0.2186,-0.2187,-0.2191,-0.2198,-0.2197,-0.2188,-0.2165,-0.2162,-0.2189,-0.2188,-0.2148,-0.2142,-0.2138,-0.2128,-0.2115,-0.2113,-0.2112,-0.2063,-0.2063,-0.2063,0,0,0,0,0,0,-0.2197,-0.2195,-0.2185,-0.2194,-0.2194,-0.2198,-0.2188,-0.2188,-0.2189,-0.2169,-0.2164,-0.219,-0.2147,-0.2141,-0.2121,-0.2125,-0.2112,-0.211,-0.2063,-0.2063,-0.2063,-0.2108,0,0,0,0,0,0,-0.2197,-0.2195,-0.2184,-0.2194,-0.2194,-0.219,-0.2188,-0.2189,-0.2193,-0.2192,-0.2168,-0.2163,-0.2146,-0.2125,-0.2119,-0.2122,-0.2108,-0.2063,-0.2063,-0.2063,-0.2107,-0.211,-0.2112,0,0,0,0,0,-0.2198,-0.2177,-0.2183,-0.2182,-0.2179,-0.219,-0.2191,-0.2193,-0.2194,-0.2192,-0.2179,-0.2163,-0.2119,-0.2123,-0.2117,-0.2119,-0.2063,-0.2063,-0.2063,-0.2106,-0.2109,-0.2112,0,0,0,0,0,0,-0.2167,-0.2175,-0.2182,-0.2161,-0.2177,-0.2189,-0.2181,-0.2194,-0.2186,-0.2179,-0.2164,-0.2157,-0.2144,-0.2121,-0.2126,-0.2103,-0.2088,-0.2087,-0.2123,-0.2126,-0.2128,-0.2129,-0.2107,0,0,0,0,0,-0.216,-0.2146,-0.2168,-0.2149,-0.2157,-0.2174,-0.2177,-0.2186,-0.2184,-0.218,-0.217,-0.2151,-0.2139,-0.2125,-0.2109,-0.2094,-0.209,-0.2089,-0.2092,-0.2094,-0.209,-0.2095,-0.2098,-0.2062,-0.2062,-0.2062,0,0,-0.2137,-0.2143,-0.2131,-0.2143,-0.215,-0.2162,-0.2173,-0.2177,-0.2187,-0.2173,-0.2168,-0.2161,-0.2138,-0.2127,-0.2118,-0.2107,-0.2106,-0.2094,-0.2096,-0.209,-0.2095,-0.2099,-0.2102,-0.2062,-0.2062,-0.2062,0,0,-0.2098,-0.2097,-0.2083,-0.2103,-0.2125,-0.2143,-0.2148,-0.2169,-0.2175,-0.2179,-0.2174,-0.217,-0.2145,-0.2138,-0.2128,-0.2132,-0.2124,-0.2125,-0.2134,-0.214,-0.2143,-0.2146,-0.2164,-0.2168,-0.2121,-0.2121,-0.2121,0,-0.207,-0.2064,-0.2081,-0.209,-0.2104,-0.2136,-0.2143,-0.2157,-0.2171,-0.2182,-0.2175,-0.2172,-0.2151,-0.2151,-0.215,-0.2139,-0.2145,-0.2128,-0.2145,-0.2148,-0.215,-0.2167,-0.2171,-0.2123,-0.2123,-0.2123,-0.2122,0,-0.2038,-0.2041,-0.2035,-0.2059,-0.2078,-0.2085,-0.2123,-0.2142,-0.216,-0.218,-0.2192,-0.218,-0.2177,-0.2174,-0.2159,-0.2167,-0.2169,-0.2156,-0.2142,-0.2157,-0.2174,-0.2177,-0.2126,-0.2125,-0.2125,-0.2124,0,0,-0.1945,-0.2002,-0.1999,-0.2021,-0.2067,-0.208,-0.2107,-0.2145,-0.217,-0.2185,-0.2212,-0.2197,-0.2206,-0.2195,-0.2189,-0.2189,-0.2213,-0.2176,-0.2176,-0.2204,-0.224,-0.2283,-0.2291,-0.2208,-0.2208,-0.2208,-0.2253,0,-0.1913,-0.1933,-0.1971,-0.1991,-0.2006,-0.2063,-0.209,-0.2132,-0.2167,-0.2202,-0.2213,-0.2225,-0.2211,-0.2214,-0.2215,-0.222,-0.2221,-0.2203,-0.2212,-0.2213,-0.2258,-0.2296,-0.2229,-0.2266,-0.2256,-0.2256,-0.2256,0,-0.1864,-0.1893,-0.191,-0.198,-0.1991,-0.201,-0.2077,-0.2106,-0.2171,-0.2201,-0.2232,-0.225,-0.2266,-0.2242,-0.2261,-0.2254,-0.2242,-0.2241,-0.2243,-0.2266,-0.2262,-0.2245,-0.2273,-0.2078,-0.2261,-0.2261,-0.2261,0,-0.1792,-0.1846,-0.1863,-0.1884,-0.1964,-0.1985,-0.2024,-0.2095,-0.2132,-0.2197,-0.2238,-0.2267,-0.2291,-0.2285,-0.2297,-0.2276,-0.2323,-0.2293,-0.2322,-0.2325,-0.2261,-0.2258,-0.2106,-0.2289,-0.2288,-0.2288,-0.2288,0,-0.1739,-0.1746,-0.1833,-0.1839,-0.1868,-0.1938,-0.1973,-0.2029,-0.2109,-0.2165,-0.2222,-0.2281,-0.2302,-0.2341,-0.2322,-0.2357,-0.2345,-0.2336,-0.2343,-0.2277,-0.2276,-0.2097,-0.2048,-0.229,-0.229,-0.2289,-0.2289,0,-0.1639,-0.1697,-0.1721,-0.1806,-0.183,-0.1843,-0.1934,-0.1971,-0.206,-0.214,-0.2163,-0.2293,-0.2366,-0.2391,-0.2409,-0.2407,-0.2354,-0.2417,-0.2355,-0.2354,-0.2207,-0.2166,-0.2173,-0.2127,-0.2461,-0.2463,-0.2464,0,-0.1585,-0.1589,-0.1674,-0.1693,-0.1724,-0.1767,-0.1805,-0.1915,-0.1974,-0.2154,-0.2196,-0.2316,-0.2413,-0.2495,-0.2515,-0.2527,-0.239,-0.2446,-0.2389,-0.2201,-0.2158,-0.2171,-0.2131,-0.2321,-0.232,-0.232,-0.232,0,-0.1476,-0.1509,-0.1537,-0.1587,-0.1625,-0.168,-0.1754,-0.1802,-0.1956,-0.206,-0.2227,-0.2326,-0.2478,-0.2524,-0.2567,-0.2535,-0.2342,-0.2448,-0.2246,-0.2042,-0.2052,-0.2009,-0.2296,-0.232,-0.232,-0.232,-0.232,-0.232,-0.138,-0.138,-0.1428,-0.1461,-0.1522,-0.1588,-0.1597,-0.1726,-0.1833,-0.199,-0.2167,-0.2287,-0.2387,-0.2481,-0.2468,-0.23,-0.2384,-0.2161,-0.2133,-0.2167,-0.2101,-0.2415,-0.2454,-0.2455,-0.2455,-0.2456,-0.2457,0,-0.126,-0.1277,-0.1304,-0.1357,-0.1392,-0.1462,-0.1556,-0.1575,-0.1681,-0.1871,-0.2021,-0.2126,-0.2144,-0.2147,-0.2068,-0.1954,-0.1935,-0.1827,-0.1738,-0.1717,-0.195,-0.1912,-0.1843,-0.1843,-0.1843,-0.1843,-0.1844,-0.1844,-0.1193,-0.1177,-0.12,-0.1209,-0.1253,-0.1271,-0.13,-0.1373,-0.1475,-0.1609,-0.1706,-0.1838,-0.1747,-0.1711,-0.1502,-0.1477,-0.1353,-0.1423,-0.1383,-0.1398,-0.1422,-0.1445,-0.1389,-0.1211,-0.1211,-0.111,-0.1108,-0.1107]},{"header":{"parameterUnit":"m.s-1","parameterCategory":2,"la1":30.2991,"la2":30.254,"lo1":-89.0895,"lo2":-89.0444,"dy":0.0017,"dx":0.0017,"nx":28,"ny":28,"refTime":"2025-07-03T03:00:00:Z","depth":"0","parameterNumber":3,"parameterNumberName":"V-component_of_CURRENTS"},"data":[0,0,0,0,0,0,0,0,0,0,0,0,0,0,0,0,0,0,0,0,0,0,0,0,0,0,0,0,0,0,0,0,0,0,0,0,0,0,0,0,0,0,0,0,0,0,0,0,0,0,0,0,0,0,0,0,0,0,-0.0583,-0.0583,0,-0.0627,-0.0627,-0.0628,-0.0651,-0.0651,-0.0651,-0.0651,-0.0663,-0.0664,-0.0664,0,0,0,0,0,0,0,0,0,0,0,0,0,-0.0491,-0.0492,-0.0583,-0.0583,-0.0584,-0.0627,-0.0627,-0.0628,-0.0651,-0.0651,-0.0651,-0.0651,-0.0663,-0.0664,-0.0664,0,0,0,0,0,0,0,0,0,0,0,0,0,-0.0532,-0.0493,-0.0582,-0.0601,-0.0603,-0.0627,-0.0627,-0.0628,-0.0651,-0.0651,-0.0651,-0.0651,-0.0663,-0.0664,-0.0664,-0.0664,0,0,-0.0665,-0.0665,0,0,0,0,0,0,0,0,-0.0529,-0.0535,-0.0597,-0.06,-0.0602,-0.0634,-0.06,-0.0639,-0.0651,-0.0632,-0.0651,-0.0651,-0.0651,-0.0652,-0.066,-0.0665,-0.0665,-0.0665,-0.0666,-0.0666,-0.0666,0,0,0,0,0,0,0,-0.0527,-0.0533,-0.0599,-0.0598,-0.0601,-0.0598,-0.0604,-0.0607,-0.0639,-0.0633,-0.0635,-0.0641,-0.0652,-0.066,-0.066,-0.0665,-0.0665,-0.0666,-0.0666,-0.0666,-0.066,-0.0659,0,0,0,0,0,0,-0.0524,-0.0531,-0.0598,-0.0601,-0.0566,-0.0599,-0.0606,-0.0623,-0.064,-0.0643,-0.0641,-0.0642,-0.0659,-0.066,-0.0661,-0.0667,-0.0666,-0.0666,-0.0666,-0.066,-0.066,-0.0659,0,0,0,0,0,0,-0.0522,-0.053,-0.0596,-0.0566,-0.0575,-0.0601,-0.062,-0.0624,-0.063,-0.0646,-0.0649,-0.0643,-0.0659,-0.066,-0.0667,-0.0667,-0.0666,-0.0667,-0.0661,-0.066,-0.066,-0.0674,0,0,0,0,0,0,-0.0519,-0.0529,-0.0537,-0.0567,-0.0576,-0.0609,-0.062,-0.0625,-0.0634,-0.0636,-0.0648,-0.065,-0.0659,-0.0667,-0.0668,-0.0667,-0.0667,-0.0661,-0.066,-0.066,-0.0674,-0.0674,-0.0674,0,0,0,0,0,-0.0516,-0.0527,-0.0537,-0.0545,-0.0588,-0.0609,-0.0613,-0.0631,-0.0634,-0.0637,-0.0648,-0.0649,-0.0662,-0.0667,-0.0668,-0.0668,-0.0662,-0.0661,-0.066,-0.0674,-0.0674,-0.0674,0,0,0,0,0,0,-0.049,-0.0532,-0.0543,-0.0567,-0.0585,-0.0613,-0.0619,-0.0628,-0.0639,-0.064,-0.0651,-0.0654,-0.0656,-0.0657,-0.0662,-0.0661,-0.0659,-0.0658,-0.067,-0.067,-0.067,-0.0684,-0.0667,0,0,0,0,0,-0.0489,-0.0512,-0.0542,-0.056,-0.0569,-0.0592,-0.0601,-0.0613,-0.0629,-0.0635,-0.0644,-0.0649,-0.0653,-0.0658,-0.066,-0.0665,-0.0644,-0.0661,-0.0661,-0.0661,-0.0672,-0.0642,-0.064,-0.0656,-0.0656,-0.0656,0,0,-0.0486,-0.051,-0.0524,-0.0556,-0.0573,-0.0595,-0.0597,-0.0613,-0.0632,-0.0633,-0.0653,-0.0648,-0.0653,-0.066,-0.066,-0.0662,-0.064,-0.066,-0.0661,-0.0672,-0.064,-0.0639,-0.0638,-0.0656,-0.0656,-0.0656,0,0,-0.0493,-0.0511,-0.0532,-0.0548,-0.0573,-0.059,-0.0593,-0.0617,-0.0627,-0.0642,-0.0646,-0.0645,-0.0652,-0.0661,-0.0665,-0.0664,-0.0638,-0.0653,-0.0672,-0.0642,-0.064,-0.0639,-0.0587,-0.0582,-0.0657,-0.0657,-0.0657,0,-0.0487,-0.0523,-0.0538,-0.056,-0.058,-0.0589,-0.0615,-0.0625,-0.0648,-0.0657,-0.0648,-0.0654,-0.0657,-0.067,-0.0673,-0.0666,-0.0634,-0.0675,-0.0643,-0.0641,-0.0639,-0.0587,-0.058,-0.0658,-0.0658,-0.0657,-0.0657,0,-0.0515,-0.0539,-0.0549,-0.0589,-0.0607,-0.0627,-0.0649,-0.066,-0.0666,-0.0676,-0.0679,-0.0674,-0.068,-0.0673,-0.0679,-0.067,-0.0643,-0.0643,-0.0646,-0.0639,-0.0583,-0.0576,-0.0659,-0.0658,-0.0658,-0.0658,0,0,-0.052,-0.0564,-0.0568,-0.0594,-0.0626,-0.0649,-0.0673,-0.0703,-0.0721,-0.0714,-0.0731,-0.0727,-0.0712,-0.0714,-0.0705,-0.0684,-0.064,-0.0663,-0.0661,-0.0617,-0.0549,-0.0575,-0.0569,-0.0629,-0.0628,-0.0628,-0.0506,0,-0.0542,-0.059,-0.0607,-0.0654,-0.0684,-0.07,-0.0727,-0.0748,-0.0755,-0.0767,-0.0747,-0.0752,-0.073,-0.0728,-0.0703,-0.0661,-0.0625,-0.0671,-0.0558,-0.0555,-0.0584,-0.0564,-0.0501,-0.0392,-0.0499,-0.0497,-0.0497,0,-0.0566,-0.06,-0.0649,-0.0702,-0.0716,-0.0742,-0.079,-0.0811,-0.0821,-0.082,-0.0808,-0.079,-0.0764,-0.0744,-0.0652,-0.0678,-0.0618,-0.0575,-0.0569,-0.0591,-0.0569,-0.042,-0.0375,-0.0152,-0.0485,-0.0486,-0.0487,0,-0.0574,-0.0631,-0.0674,-0.0692,-0.0747,-0.0772,-0.0802,-0.0826,-0.0851,-0.0848,-0.0857,-0.0811,-0.0789,-0.071,-0.0629,-0.0632,-0.0519,-0.0509,-0.0467,-0.0466,-0.0392,-0.0388,-0.0129,-0.044,-0.044,-0.044,-0.0441,0,-0.0594,-0.0627,-0.0682,-0.0705,-0.0763,-0.0791,-0.0841,-0.0858,-0.0882,-0.0919,-0.0881,-0.089,-0.078,-0.0713,-0.0627,-0.0526,-0.0508,-0.0468,-0.0444,-0.0394,-0.0391,-0.0182,-0.0124,-0.0436,-0.0437,-0.0438,-0.0439,0,-0.0586,-0.0623,-0.0674,-0.0739,-0.0766,-0.0802,-0.0873,-0.0909,-0.0921,-0.0965,-0.0967,-0.0929,-0.0849,-0.0735,-0.0601,-0.053,-0.0327,-0.0397,-0.0341,-0.0315,-0.0102,-0.0052,0.009,0.0195,-0.0326,-0.0326,-0.0326,0,-0.0585,-0.0611,-0.0689,-0.073,-0.076,-0.0823,-0.0875,-0.092,-0.0968,-0.1002,-0.1033,-0.0968,-0.0964,-0.0767,-0.0599,-0.0435,-0.0298,-0.0277,-0.0295,-0.0078,-0.0001,-0.0007,0.0073,-0.017,-0.0169,-0.0168,-0.0167,0,-0.0581,-0.0604,-0.0644,-0.073,-0.0796,-0.0875,-0.0956,-0.1006,-0.1069,-0.112,-0.1174,-0.1172,-0.0989,-0.0814,-0.0587,-0.0451,-0.014,-0.0257,-0.0025,0.0134,0.0141,0.0251,-0.0245,-0.0158,-0.0159,-0.016,-0.016,-0.0161,-0.0566,-0.0594,-0.0654,-0.0733,-0.0816,-0.0927,-0.0994,-0.1106,-0.1206,-0.1329,-0.1307,-0.134,-0.0985,-0.0681,-0.05,-0.0007,-0.0101,0.0138,0.0184,0.0162,0.0246,-0.0247,-0.0158,-0.0159,-0.0159,-0.016,-0.016,0,-0.0559,-0.0601,-0.0666,-0.0772,-0.0861,-0.091,-0.1051,-0.1138,-0.1286,-0.1429,-0.1517,-0.1246,-0.0886,-0.0455,0.019,0.0437,0.0512,0.0599,0.0688,0.075,0.0361,0.0355,0.0552,0.0551,0.0551,0.0551,0.0551,0.055,-0.0557,-0.0614,-0.0654,-0.0791,-0.0866,-0.0994,-0.1074,-0.1227,-0.1352,-0.146,-0.1417,-0.1368,-0.0591,0.0272,0.0924,0.1,0.1212,0.1131,0.1237,0.1071,0.1035,0.1001,0.1018,0.135,0.135,0.1655,0.1659,0.1661]}],[{"header":{"parameterUnit":"m.s-1","parameterCategory":2,"la1":30.2991,"la2":30.254,"lo1":-89.0895,"lo2":-89.0444,"dy":0.0017,"dx":0.0017,"nx":28,"ny":28,"refTime":"2025-07-03T03:00:00:Z","depth":"2","parameterNumber":2,"parameterNumberName":"U-component_of_CURRENTS"},"data":[0,0,0,0,0,0,0,0,0,0,0,0,0,0,0,0,0,0,0,0,0,0,0,0,0,0,0,0,0,0,0,0,0,0,0,0,0,0,0,0,0,0,0,0,0,0,0,0,0,0,0,0,0,0,0,0,0,0,-0.2107,-0.2108,0,-0.2181,-0.2181,-0.2182,-0.2163,-0.2162,-0.2161,-0.216,-0.2102,-0.2102,-0.2101,0,0,0,0,0,0,0,0,0,0,0,0,0,-0.1988,-0.199,-0.2107,-0.2108,-0.211,-0.2181,-0.2181,-0.2182,-0.2164,-0.2162,-0.2161,-0.216,-0.2102,-0.2102,-0.2101,0,0,0,0,0,0,0,0,0,0,0,0,0,-0.2045,-0.199,-0.2107,-0.2111,-0.2113,-0.2181,-0.2181,-0.2182,-0.2164,-0.2162,-0.2161,-0.2159,-0.2103,-0.2102,-0.2101,-0.2131,0,0,-0.2099,-0.2099,0,0,0,0,0,0,0,0,-0.2042,-0.2049,-0.211,-0.2111,-0.2113,-0.2164,-0.2119,-0.216,-0.2164,-0.2141,-0.216,-0.2158,-0.2114,-0.2113,-0.2127,-0.2128,-0.2126,-0.2099,-0.2098,-0.2098,-0.2098,0,0,0,0,0,0,0,-0.2038,-0.2046,-0.2133,-0.2111,-0.2113,-0.2123,-0.2128,-0.2127,-0.2131,-0.2143,-0.2143,-0.2157,-0.2113,-0.2128,-0.2125,-0.2125,-0.2099,-0.2098,-0.2098,-0.2098,-0.2112,-0.2112,0,0,0,0,0,0,-0.2036,-0.2043,-0.2131,-0.2135,-0.2076,-0.2127,-0.2133,-0.2147,-0.2134,-0.2133,-0.2158,-0.2156,-0.213,-0.2126,-0.2123,-0.2104,-0.2098,-0.2097,-0.2097,-0.2111,-0.2112,-0.2113,0,0,0,0,0,0,-0.2033,-0.2043,-0.2128,-0.2093,-0.2105,-0.213,-0.2147,-0.2149,-0.2148,-0.2148,-0.2142,-0.2152,-0.2129,-0.2124,-0.2129,-0.2103,-0.2097,-0.2097,-0.211,-0.2111,-0.2112,-0.21,0,0,0,0,0,0,-0.203,-0.2042,-0.204,-0.2093,-0.2107,-0.2164,-0.2149,-0.2152,-0.2162,-0.2159,-0.2141,-0.2136,-0.2127,-0.213,-0.2128,-0.2102,-0.2096,-0.2109,-0.211,-0.2112,-0.2099,-0.2101,-0.2102,0,0,0,0,0,-0.2025,-0.2038,-0.2039,-0.2049,-0.2107,-0.2166,-0.2173,-0.2183,-0.2163,-0.2172,-0.2167,-0.2135,-0.2137,-0.2131,-0.2128,-0.2101,-0.2108,-0.211,-0.2112,-0.2099,-0.21,-0.2102,0,0,0,0,0,0,-0.1988,-0.2039,-0.2041,-0.2068,-0.211,-0.2163,-0.2172,-0.2179,-0.2185,-0.2172,-0.2157,-0.2153,-0.2142,-0.2139,-0.2132,-0.2114,-0.2113,-0.2114,-0.2104,-0.2105,-0.2106,-0.2086,-0.2095,0,0,0,0,0,-0.198,-0.1993,-0.2054,-0.2069,-0.2092,-0.2127,-0.2146,-0.216,-0.2182,-0.2182,-0.2175,-0.2164,-0.2153,-0.2143,-0.2142,-0.2139,-0.213,-0.212,-0.2121,-0.2122,-0.2107,-0.2088,-0.2085,-0.2119,-0.2119,-0.2118,0,0,-0.1965,-0.1998,-0.2001,-0.2061,-0.2089,-0.2126,-0.2133,-0.2168,-0.2179,-0.2174,-0.2174,-0.2169,-0.2157,-0.2153,-0.2146,-0.2141,-0.2114,-0.2124,-0.2124,-0.2109,-0.2089,-0.2086,-0.2082,-0.212,-0.212,-0.2119,0,0,-0.1963,-0.1978,-0.1996,-0.2035,-0.2089,-0.2116,-0.2123,-0.2177,-0.2176,-0.2201,-0.2183,-0.2164,-0.2175,-0.2145,-0.2133,-0.2142,-0.2124,-0.2147,-0.2126,-0.2109,-0.2105,-0.2102,-0.2106,-0.2102,-0.2142,-0.2142,-0.2142,0,-0.1941,-0.1974,-0.2011,-0.2051,-0.207,-0.2108,-0.2134,-0.2155,-0.2198,-0.2184,-0.2198,-0.2175,-0.2161,-0.2118,-0.2126,-0.2135,-0.2144,-0.2117,-0.2107,-0.2103,-0.21,-0.2105,-0.2101,-0.2142,-0.2142,-0.2142,-0.2142,0,-0.1965,-0.1988,-0.2006,-0.2054,-0.2083,-0.2113,-0.2156,-0.2165,-0.2168,-0.218,-0.2155,-0.2154,-0.2132,-0.2124,-0.213,-0.2089,-0.2112,-0.2112,-0.2095,-0.2095,-0.2101,-0.2098,-0.2142,-0.2142,-0.2142,-0.2142,0,0,-0.1903,-0.2001,-0.1998,-0.2015,-0.2082,-0.2104,-0.212,-0.2134,-0.2116,-0.2144,-0.2115,-0.2098,-0.2092,-0.208,-0.2071,-0.2053,-0.2042,-0.2079,-0.2079,-0.2069,-0.2031,-0.206,-0.206,-0.205,-0.2049,-0.2049,-0.2052,0,-0.1897,-0.196,-0.2006,-0.2031,-0.2059,-0.209,-0.2098,-0.2109,-0.2116,-0.2107,-0.2082,-0.207,-0.2078,-0.2069,-0.205,-0.2059,-0.2031,-0.2043,-0.2045,-0.2044,-0.2058,-0.2055,-0.1758,-0.1737,-0.2049,-0.2048,-0.2048,0,-0.1883,-0.1928,-0.1965,-0.2006,-0.2017,-0.2032,-0.2019,-0.204,-0.2037,-0.2044,-0.2027,-0.2035,-0.2016,-0.2024,-0.2013,-0.2033,-0.2022,-0.2019,-0.2019,-0.2041,-0.2066,-0.1786,-0.1719,-0.2042,-0.2042,-0.2043,-0.2043,0,-0.1797,-0.1875,-0.1892,-0.1913,-0.1982,-0.1972,-0.1991,-0.1999,-0.1998,-0.2005,-0.2009,-0.1999,-0.2004,-0.1996,-0.2013,-0.2023,-0.2001,-0.2011,-0.2011,-0.2014,-0.1755,-0.1738,-0.1959,-0.1959,-0.1959,-0.1959,-0.1959,0,-0.1754,-0.175,-0.1851,-0.1858,-0.1846,-0.1916,-0.1891,-0.1909,-0.1932,-0.1926,-0.197,-0.1969,-0.2001,-0.2004,-0.2006,-0.2015,-0.1996,-0.2001,-0.2009,-0.175,-0.1734,-0.1989,-0.1993,-0.1959,-0.1959,-0.1959,-0.1959,0,-0.1633,-0.171,-0.1725,-0.1799,-0.1808,-0.1794,-0.1835,-0.1823,-0.1874,-0.1874,-0.1884,-0.195,-0.2002,-0.2016,-0.2017,-0.2013,-0.2008,-0.1992,-0.171,-0.1687,-0.2038,-0.2041,-0.2019,-0.202,-0.2021,-0.2021,-0.2022,0,-0.1573,-0.1581,-0.1654,-0.1655,-0.1678,-0.1686,-0.1686,-0.1761,-0.1768,-0.1858,-0.1849,-0.1924,-0.1954,-0.1997,-0.1951,-0.1946,-0.2021,-0.1718,-0.1678,-0.2029,-0.204,-0.2042,-0.2044,-0.1326,-0.1321,-0.1316,-0.1313,0,-0.1447,-0.1478,-0.1498,-0.1522,-0.1529,-0.1546,-0.157,-0.1581,-0.168,-0.1711,-0.1784,-0.1827,-0.1857,-0.174,-0.1751,-0.1716,-0.1714,-0.1642,-0.2016,-0.1398,-0.1387,-0.1395,-0.1416,-0.1275,-0.1279,-0.1282,-0.1284,-0.1285,-0.1328,-0.1317,-0.1366,-0.1367,-0.1388,-0.1413,-0.14,-0.1464,-0.15,-0.1567,-0.1676,-0.1645,-0.1556,-0.1457,-0.1422,-0.14,-0.1546,-0.1447,-0.1453,-0.1465,-0.1426,-0.142,-0.1307,-0.1311,-0.1314,-0.1317,-0.132,0,-0.1204,-0.1209,-0.1208,-0.1234,-0.1229,-0.1283,-0.1317,-0.1315,-0.1348,-0.1426,-0.1496,-0.121,-0.1111,-0.1088,-0.0948,-0.0989,-0.0919,-0.0997,-0.0827,-0.0862,-0.0894,-0.0822,-0.0546,-0.0545,-0.0544,-0.0544,0,0,-0.1138,-0.1106,-0.1123,-0.1084,-0.1096,-0.1078,-0.1091,-0.1121,-0.1152,-0.1126,-0.1052,-0.1124,-0.1011,-0.0743,-0.0703,-0.0625,-0.0774,-0.0607,-0.12,-0.1033,-0.1066,-0.1096,-0.1019,0,0,0,0,0]},{"header":{"parameterUnit":"m.s-1","parameterCategory":2,"la1":30.2991,"la2":30.254,"lo1":-89.0895,"lo2":-89.0444,"dy":0.0017,"dx":0.0017,"nx":28,"ny":28,"refTime":"2025-07-03T03:00:00:Z","depth":"2","parameterNumber":3,"parameterNumberName":"V-component_of_CURRENTS"},"data":[0,0,0,0,0,0,0,0,0,0,0,0,0,0,0,0,0,0,0,0,0,0,0,0,0,0,0,0,0,0,0,0,0,0,0,0,0,0,0,0,0,0,0,0,0,0,0,0,0,0,0,0,0,0,0,0,0,0,0.0287,0.0288,0,0.0411,0.0412,0.0414,0.0411,0.0409,0.0407,0.0405,0.0396,0.0398,0.0399,0,0,0,0,0,0,0,0,0,0,0,0,0,0.0232,0.0232,0.0287,0.0288,0.029,0.041,0.0412,0.0414,0.0411,0.0409,0.0406,0.0404,0.0396,0.0397,0.0399,0,0,0,0,0,0,0,0,0,0,0,0,0,0.0298,0.0232,0.0287,0.0301,0.0303,0.041,0.0412,0.0415,0.0411,0.0408,0.0406,0.0403,0.0395,0.0397,0.0399,0.0471,0,0,0.0407,0.0408,0,0,0,0,0,0,0,0,0.0294,0.03,0.0297,0.03,0.0303,0.039,0.039,0.0426,0.0412,0.0373,0.0405,0.0402,0.0382,0.0386,0.042,0.047,0.047,0.0407,0.0408,0.0409,0.041,0,0,0,0,0,0,0,0.0289,0.0296,0.0338,0.0299,0.0302,0.0364,0.0369,0.0398,0.0391,0.0376,0.0375,0.0386,0.0383,0.0418,0.042,0.047,0.0407,0.0409,0.041,0.0411,0.0557,0.0559,0,0,0,0,0,0,0.0263,0.029,0.0334,0.0342,0.0289,0.0366,0.0372,0.0367,0.0394,0.0396,0.0389,0.0386,0.0416,0.0417,0.0419,0.044,0.0409,0.0411,0.0413,0.0555,0.0558,0.056,0,0,0,0,0,0,0.0261,0.0265,0.0329,0.0318,0.033,0.0368,0.0365,0.0371,0.037,0.0405,0.0404,0.0376,0.0414,0.0416,0.045,0.0441,0.0412,0.0414,0.0552,0.0555,0.0559,0.0523,0,0,0,0,0,0,0.0259,0.0263,0.0244,0.0316,0.033,0.0369,0.0367,0.0375,0.0383,0.0379,0.0395,0.0394,0.0412,0.0447,0.0452,0.0444,0.0416,0.0548,0.0553,0.0558,0.0521,0.0525,0.0528,0,0,0,0,0,0.0256,0.024,0.0242,0.0248,0.0304,0.0369,0.0382,0.0403,0.0384,0.0391,0.0419,0.0391,0.048,0.0451,0.0457,0.0449,0.0546,0.0552,0.0557,0.0519,0.0524,0.0528,0,0,0,0,0,0,0.0205,0.024,0.0244,0.0237,0.0288,0.0367,0.0369,0.0389,0.0422,0.0402,0.0427,0.043,0.046,0.0477,0.0445,0.0514,0.0507,0.0514,0.0476,0.0481,0.0485,0.0456,0.0418,0,0,0,0,0,0.0187,0.0176,0.0238,0.023,0.0247,0.0304,0.0327,0.0346,0.039,0.0399,0.0419,0.0451,0.0501,0.0503,0.0548,0.058,0.0586,0.0584,0.0588,0.059,0.0577,0.0563,0.0562,0.0579,0.0579,0.0579,0,0,0.0163,0.0182,0.0174,0.0218,0.0251,0.029,0.0309,0.0334,0.0363,0.0393,0.0419,0.0461,0.0518,0.0564,0.0576,0.0563,0.0606,0.0597,0.0598,0.0584,0.0568,0.0566,0.0563,0.0583,0.0582,0.0581,0,0,0.0134,0.0127,0.012,0.0162,0.0207,0.0255,0.0252,0.0319,0.0334,0.0389,0.0424,0.0466,0.0525,0.0573,0.0605,0.066,0.0633,0.0665,0.0641,0.0627,0.0624,0.062,0.0682,0.0684,0.0655,0.0655,0.0655,0,0.0105,0.0105,0.0133,0.0155,0.018,0.023,0.0251,0.0298,0.0368,0.0388,0.0382,0.0502,0.0536,0.0608,0.063,0.066,0.0663,0.0607,0.0624,0.0621,0.0618,0.0681,0.0683,0.0654,0.0654,0.0654,0.0654,0,0.009,0.0093,0.0093,0.0131,0.0167,0.0189,0.0259,0.0286,0.0308,0.0361,0.0422,0.0495,0.0557,0.0584,0.0619,0.0636,0.0654,0.0631,0.0592,0.0612,0.0681,0.0684,0.0652,0.0653,0.0653,0.0653,0,0,0.0021,0.0071,0.0069,0.0084,0.0151,0.0182,0.0225,0.0292,0.0314,0.0375,0.0415,0.051,0.0531,0.0572,0.0619,0.061,0.062,0.0596,0.0596,0.0622,0.0626,0.0657,0.0665,0.0566,0.0565,0.0564,0.07,0,0.0,0.0018,0.0058,0.0085,0.0102,0.0164,0.0207,0.0269,0.0323,0.0379,0.0448,0.0505,0.0533,0.0554,0.0555,0.0605,0.0617,0.0589,0.0633,0.0637,0.0629,0.0664,0.0582,0.0694,0.0704,0.0704,0.0705,0,-0.0026,-0.001,0.0001,0.0057,0.0068,0.0096,0.0155,0.0205,0.0302,0.034,0.0402,0.0462,0.0523,0.0513,0.0583,0.0549,0.0582,0.0611,0.0615,0.0646,0.067,0.067,0.07,0.071,0.071,0.0709,0.0709,0,-0.0095,-0.0047,-0.005,-0.0029,0.0045,0.0054,0.0091,0.0178,0.0214,0.0305,0.0335,0.0424,0.0465,0.0492,0.0581,0.0557,0.0644,0.0626,0.0705,0.0712,0.0655,0.0656,0.0648,0.0648,0.0648,0.0647,0.0647,0,-0.0132,-0.0129,-0.0088,-0.0085,-0.0081,-0.0013,0.0009,0.0066,0.0145,0.0188,0.0293,0.0346,0.0437,0.0519,0.0576,0.0672,0.0647,0.0713,0.0732,0.0653,0.0653,0.066,0.0659,0.0652,0.0651,0.065,0.0649,0,-0.02,-0.0173,-0.0167,-0.0122,-0.0114,-0.0116,-0.0057,-0.0027,0.0044,0.0102,0.0121,0.0277,0.0376,0.0504,0.0597,0.0676,0.0757,0.0793,0.0743,0.0752,0.0847,0.0844,0.09,0.0902,0.0903,0.0905,0.0906,0,-0.0232,-0.0242,-0.0218,-0.0222,-0.0208,-0.0195,-0.0177,-0.0097,-0.0059,0.0061,0.0088,0.0216,0.033,0.0541,0.0697,0.0852,0.08,0.0843,0.0776,0.0851,0.0865,0.0859,0.0854,0.0727,0.0726,0.0726,0.0726,0,-0.0287,-0.0287,-0.028,-0.03,-0.0297,-0.0275,-0.0246,-0.0228,-0.0128,-0.0072,0.0032,0.0127,0.0375,0.0532,0.0754,0.0819,0.0812,0.0842,0.0903,0.0669,0.0696,0.0707,0.0705,0.0722,0.0723,0.0723,0.0723,0.0723,-0.0329,-0.0346,-0.0349,-0.0366,-0.0365,-0.035,-0.0339,-0.0289,-0.0237,-0.0144,-0.0026,0.0129,0.0291,0.0614,0.0717,0.0838,0.0882,0.0832,0.0829,0.0828,0.0776,0.0802,0.0845,0.0846,0.0847,0.0848,0.0848,0,-0.0364,-0.0384,-0.041,-0.0418,-0.0428,-0.0417,-0.0375,-0.0345,-0.0298,-0.0191,-0.0088,0.0109,0.0303,0.0465,0.0684,0.0811,0.0784,0.0748,0.0656,0.0661,0.0664,0.06,0.0625,0.0624,0.0624,0.0623,0,0,-0.038,-0.0417,-0.0434,-0.0473,-0.0486,-0.0488,-0.047,-0.0418,-0.0334,-0.0229,-0.0107,0.008,0.0315,0.0377,0.0488,0.0555,0.0567,0.0545,0.0714,0.0592,0.0593,0.0706,0.0612,0,0,0,0,0]}],[{"header":{"parameterUnit":"m.s-1","parameterCategory":2,"la1":30.2991,"la2":30.254,"lo1":-89.0895,"lo2":-89.0444,"dy":0.0017,"dx":0.0017,"nx":28,"ny":28,"refTime":"2025-07-03T03:00:00:Z","depth":"4","parameterNumber":2,"parameterNumberName":"U-component_of_CURRENTS"},"data":[0,0,0,0,0,0,0,0,0,0,0,0,0,0,0,0,0,0,0,0,0,0,0,0,0,0,0,0,0,0,0,0,0,0,0,0,0,0,0,0,0,0,0,0,0,0,0,0,0,0,0,0,0,0,0,0,0,0,-0.0705,-0.0705,0,-0.0768,-0.0769,-0.0771,-0.0838,-0.0838,-0.0838,-0.0839,-0.0916,-0.0918,-0.092,0,0,0,0,0,0,0,0,0,0,0,0,0,-0.0701,-0.0702,-0.0705,-0.0705,-0.0705,-0.0767,-0.0769,-0.0771,-0.0838,-0.0838,-0.0838,-0.0839,-0.0915,-0.0918,-0.092,0,0,0,0,0,0,0,0,0,0,0,0,0,-0.0736,-0.0702,-0.0705,-0.0739,-0.0742,-0.0767,-0.0769,-0.0772,-0.0838,-0.0838,-0.0839,-0.0839,-0.0915,-0.0917,-0.092,-0.0936,0,0,-0.0929,-0.0931,0,0,0,0,0,0,0,0,-0.0734,-0.0738,-0.0734,-0.0737,-0.074,-0.0787,-0.0796,-0.0824,-0.0838,-0.0812,-0.0839,-0.0839,-0.0868,-0.0875,-0.09,-0.0939,-0.0943,-0.093,-0.0931,-0.0933,-0.0934,0,0,0,0,0,0,0,-0.0732,-0.0735,-0.074,-0.0734,-0.0737,-0.077,-0.0776,-0.0803,-0.0846,-0.0814,-0.0817,-0.0809,-0.0871,-0.0897,-0.0902,-0.0944,-0.093,-0.0932,-0.0934,-0.0935,-0.1155,-0.1159,0,0,0,0,0,0,-0.0702,-0.0733,-0.0737,-0.074,-0.0727,-0.0769,-0.0776,-0.078,-0.0845,-0.0853,-0.0808,-0.0811,-0.0891,-0.0898,-0.0904,-0.1028,-0.0933,-0.0935,-0.0937,-0.1151,-0.1156,-0.1161,0,0,0,0,0,0,-0.0702,-0.0702,-0.0735,-0.073,-0.0735,-0.0768,-0.0772,-0.078,-0.0852,-0.0839,-0.0849,-0.0874,-0.0892,-0.09,-0.0971,-0.1027,-0.0937,-0.0939,-0.1147,-0.1153,-0.1159,-0.1209,0,0,0,0,0,0,-0.0702,-0.0702,-0.0716,-0.0728,-0.0734,-0.0768,-0.0771,-0.0781,-0.0838,-0.0845,-0.0898,-0.0902,-0.0893,-0.0967,-0.0974,-0.1029,-0.0942,-0.1141,-0.1149,-0.1157,-0.1202,-0.1216,-0.1228,0,0,0,0,0,-0.0701,-0.0705,-0.0717,-0.0718,-0.0745,-0.0768,-0.0777,-0.0806,-0.0842,-0.0875,-0.0922,-0.0903,-0.1021,-0.0972,-0.0979,-0.1037,-0.1138,-0.1147,-0.1156,-0.1196,-0.1213,-0.1227,0,0,0,0,0,0,-0.0707,-0.0711,-0.0725,-0.073,-0.0757,-0.0777,-0.08,-0.084,-0.0908,-0.0911,-0.094,-0.0949,-0.1032,-0.1042,-0.0988,-0.1132,-0.1083,-0.1095,-0.1112,-0.1128,-0.114,-0.1115,-0.0944,0,0,0,0,0,-0.0712,-0.0713,-0.0735,-0.0736,-0.0758,-0.0799,-0.0822,-0.0835,-0.0877,-0.0911,-0.0955,-0.1011,-0.1071,-0.1104,-0.1139,-0.1213,-0.1173,-0.1266,-0.1279,-0.1289,-0.128,-0.1345,-0.1361,-0.1191,-0.1191,-0.1191,0,0,-0.0712,-0.0708,-0.0714,-0.0737,-0.0765,-0.0807,-0.0818,-0.0841,-0.0872,-0.0904,-0.0987,-0.1048,-0.1102,-0.1179,-0.122,-0.1197,-0.1297,-0.1301,-0.1308,-0.1293,-0.1356,-0.1372,-0.1386,-0.1197,-0.1196,-0.1195,0,0,-0.07,-0.072,-0.0729,-0.0756,-0.0777,-0.0811,-0.0836,-0.0886,-0.091,-0.0995,-0.1029,-0.1129,-0.1226,-0.1267,-0.1306,-0.142,-0.136,-0.1456,-0.1499,-0.1563,-0.1576,-0.1587,-0.1451,-0.1451,-0.1467,-0.1467,-0.1467,0,-0.071,-0.0711,-0.0738,-0.0758,-0.078,-0.0831,-0.0866,-0.0899,-0.0964,-0.0986,-0.1026,-0.1218,-0.1267,-0.1366,-0.1421,-0.1444,-0.1411,-0.1425,-0.1574,-0.1586,-0.1596,-0.1455,-0.1454,-0.147,-0.147,-0.147,-0.1469,0,-0.0698,-0.0724,-0.0732,-0.0784,-0.0827,-0.0844,-0.0894,-0.0934,-0.1005,-0.1051,-0.1168,-0.1264,-0.139,-0.1437,-0.1473,-0.1588,-0.1506,-0.1572,-0.1517,-0.1615,-0.146,-0.1457,-0.1475,-0.1474,-0.1473,-0.1472,0,0,-0.0674,-0.0717,-0.0728,-0.075,-0.0831,-0.0854,-0.0909,-0.097,-0.1019,-0.1119,-0.1208,-0.1362,-0.1447,-0.1499,-0.1568,-0.1633,-0.1663,-0.1651,-0.1652,-0.1477,-0.1665,-0.1553,-0.1536,-0.1776,-0.1779,-0.1781,-0.1484,0,-0.0668,-0.0693,-0.0727,-0.0786,-0.0824,-0.0875,-0.0932,-0.0986,-0.1073,-0.1168,-0.1263,-0.1408,-0.1459,-0.157,-0.164,-0.1678,-0.1678,-0.1727,-0.1629,-0.1621,-0.1485,-0.1542,-0.179,-0.1482,-0.1481,-0.148,-0.148,0,-0.0659,-0.0676,-0.0722,-0.0778,-0.0802,-0.0861,-0.0955,-0.1008,-0.1123,-0.1202,-0.1348,-0.1447,-0.156,-0.1635,-0.1669,-0.1706,-0.1692,-0.1689,-0.168,-0.1563,-0.1511,-0.1397,-0.1474,-0.1474,-0.1474,-0.1475,-0.1475,0,-0.0618,-0.0674,-0.0702,-0.0723,-0.0812,-0.0842,-0.0915,-0.1033,-0.1081,-0.1266,-0.1359,-0.1484,-0.1574,-0.1625,-0.1629,-0.1683,-0.1604,-0.1674,-0.1501,-0.1483,-0.164,-0.1633,-0.1691,-0.1691,-0.1692,-0.1693,-0.1694,0,-0.059,-0.0614,-0.0688,-0.0699,-0.0748,-0.0839,-0.092,-0.1005,-0.1152,-0.1181,-0.1409,-0.1433,-0.1607,-0.1585,-0.1589,-0.1484,-0.1563,-0.1479,-0.1443,-0.1652,-0.1651,-0.1628,-0.1625,-0.1682,-0.1684,-0.1686,-0.1688,0,-0.0549,-0.0588,-0.0616,-0.0697,-0.0729,-0.0781,-0.0914,-0.0954,-0.1139,-0.1191,-0.1266,-0.1398,-0.137,-0.1423,-0.1426,-0.1399,-0.1344,-0.1282,-0.134,-0.1315,-0.1155,-0.1158,-0.1051,-0.1046,-0.1041,-0.1037,-0.1034,0,-0.0532,-0.054,-0.0601,-0.0608,-0.0651,-0.0739,-0.0773,-0.0945,-0.0972,-0.1082,-0.1059,-0.1126,-0.1172,-0.1041,-0.113,-0.1077,-0.1115,-0.1033,-0.126,-0.1134,-0.111,-0.1121,-0.113,-0.1027,-0.1025,-0.1024,-0.1023,0,-0.0496,-0.0514,-0.0532,-0.0544,-0.0574,-0.0595,-0.0654,-0.0689,-0.0801,-0.0933,-0.0883,-0.0926,-0.0859,-0.0897,-0.0887,-0.086,-0.109,-0.0986,-0.0999,-0.1212,-0.1103,-0.1086,-0.1101,-0.1007,-0.1009,-0.1011,-0.1012,0,-0.0479,-0.0468,-0.0474,-0.0485,-0.0481,-0.0453,-0.0514,-0.0517,-0.0591,-0.0719,-0.0611,-0.0694,-0.0736,-0.0763,-0.0708,-0.0737,-0.078,-0.081,-0.0833,-0.0851,-0.0955,-0.0799,-0.0559,0,0,0,0,0,-0.0463,-0.0426,-0.0408,-0.0392,-0.0361,-0.0365,-0.0404,-0.0462,-0.0535,-0.0468,-0.0581,-0.0517,-0.0546,-0.0578,-0.0581,-0.0635,-0.0783,-0.0635,-0.0829,-0.0918,-0.0937,-0.1096,0,0,0,0,0,0,-0.0445,-0.0422,-0.0393,-0.0302,-0.0259,-0.0225,-0.0253,-0.0302,-0.0303,-0.038,-0.041,-0.0461,-0.0513,-0.0525,-0.0555,-0.0568,-0.0678,-0.0677,-0.0676,-0.0908,-0.0925,-0.0939,-0.1109,0,0,0,0,0]},{"header":{"parameterUnit":"m.s-1","parameterCategory":2,"la1":30.2991,"la2":30.254,"lo1":-89.0895,"lo2":-89.0444,"dy":0.0017,"dx":0.0017,"nx":28,"ny":28,"refTime":"2025-07-03T03:00:00:Z","depth":"4","parameterNumber":3,"parameterNumberName":"V-component_of_CURRENTS"},"data":[0,0,0,0,0,0,0,0,0,0,0,0,0,0,0,0,0,0,0,0,0,0,0,0,0,0,0,0,0,0,0,0,0,0,0,0,0,0,0,0,0,0,0,0,0,0,0,0,0,0,0,0,0,0,0,0,0,0,-0.0305,-0.0306,0,-0.0336,-0.0336,-0.0336,-0.0299,-0.0298,-0.0297,-0.0296,-0.0272,-0.0272,-0.0273,0,0,0,0,0,0,0,0,0,0,0,0,0,-0.0197,-0.0199,-0.0305,-0.0306,-0.0307,-0.0336,-0.0336,-0.0336,-0.0299,-0.0298,-0.0297,-0.0296,-0.0272,-0.0272,-0.0273,0,0,0,0,0,0,0,0,0,0,0,0,0,-0.0232,-0.0199,-0.0305,-0.0296,-0.0296,-0.0336,-0.0336,-0.0336,-0.0299,-0.0298,-0.0297,-0.0295,-0.0272,-0.0272,-0.0273,-0.03,0,0,-0.0273,-0.0273,0,0,0,0,0,0,0,0,-0.023,-0.0236,-0.0296,-0.0297,-0.0297,-0.0317,-0.0289,-0.0323,-0.03,-0.0292,-0.0296,-0.0295,-0.0287,-0.0286,-0.0287,-0.0299,-0.0298,-0.0273,-0.0274,-0.0274,-0.0274,0,0,0,0,0,0,0,-0.0228,-0.0234,-0.0312,-0.0297,-0.0298,-0.0285,-0.0288,-0.0295,-0.0291,-0.0293,-0.0291,-0.0304,-0.0285,-0.0287,-0.0286,-0.0298,-0.0273,-0.0274,-0.0274,-0.0274,-0.0286,-0.0286,0,0,0,0,0,0,-0.0238,-0.0232,-0.0311,-0.0313,-0.0266,-0.0288,-0.0292,-0.0307,-0.0292,-0.0291,-0.0305,-0.0302,-0.0287,-0.0286,-0.0285,-0.0302,-0.0274,-0.0274,-0.0274,-0.0286,-0.0286,-0.0286,0,0,0,0,0,0,-0.0236,-0.0245,-0.031,-0.0277,-0.0285,-0.0292,-0.031,-0.0309,-0.0311,-0.0303,-0.0299,-0.0309,-0.0286,-0.0285,-0.0292,-0.0301,-0.0274,-0.0274,-0.0286,-0.0286,-0.0286,-0.0346,0,0,0,0,0,0,-0.0232,-0.0244,-0.0257,-0.0278,-0.0288,-0.0333,-0.0312,-0.031,-0.0324,-0.032,-0.0306,-0.0302,-0.0285,-0.0291,-0.0292,-0.0301,-0.0274,-0.0285,-0.0286,-0.0286,-0.0343,-0.0348,-0.0352,0,0,0,0,0,-0.0228,-0.0255,-0.0258,-0.0268,-0.0306,-0.0334,-0.0337,-0.0334,-0.0325,-0.033,-0.032,-0.0302,-0.0293,-0.0293,-0.0293,-0.0303,-0.0285,-0.0286,-0.0286,-0.0342,-0.0347,-0.0352,0,0,0,0,0,0,-0.0221,-0.0256,-0.0258,-0.0296,-0.0314,-0.033,-0.0344,-0.0342,-0.034,-0.034,-0.0318,-0.0314,-0.0321,-0.0304,-0.0305,-0.0303,-0.0281,-0.0282,-0.0323,-0.0328,-0.0332,-0.0314,-0.0275,0,0,0,0,0,-0.0228,-0.0259,-0.028,-0.0316,-0.0323,-0.0335,-0.0347,-0.035,-0.0356,-0.0354,-0.0344,-0.0331,-0.0325,-0.0321,-0.0315,-0.0325,-0.0291,-0.0325,-0.033,-0.0333,-0.0317,-0.0245,-0.0241,-0.0287,-0.0287,-0.0287,0,0,-0.0239,-0.0264,-0.0282,-0.0317,-0.033,-0.0352,-0.0337,-0.0367,-0.0383,-0.0354,-0.0367,-0.0354,-0.0332,-0.0338,-0.0338,-0.0324,-0.0316,-0.0334,-0.0338,-0.0318,-0.0245,-0.024,-0.0236,-0.0288,-0.0288,-0.0288,0,0,-0.0271,-0.0295,-0.0319,-0.0335,-0.0366,-0.0379,-0.0389,-0.0406,-0.0405,-0.0427,-0.0402,-0.0391,-0.0393,-0.0368,-0.0358,-0.0382,-0.0344,-0.0381,-0.0386,-0.0318,-0.0313,-0.0308,-0.032,-0.0315,-0.0378,-0.0379,-0.0379,0,-0.0277,-0.0316,-0.0331,-0.0354,-0.0377,-0.0391,-0.0417,-0.0426,-0.0444,-0.0449,-0.0437,-0.0423,-0.0403,-0.0394,-0.0388,-0.0391,-0.0364,-0.0375,-0.0322,-0.0316,-0.0309,-0.0322,-0.0316,-0.0381,-0.0381,-0.0381,-0.0381,0,-0.0316,-0.0347,-0.0366,-0.04,-0.0424,-0.0458,-0.0474,-0.0487,-0.0496,-0.0505,-0.0505,-0.0474,-0.0454,-0.0449,-0.0423,-0.0378,-0.0382,-0.0341,-0.031,-0.0308,-0.0323,-0.0316,-0.0386,-0.0385,-0.0384,-0.0383,0,0,-0.0324,-0.038,-0.0386,-0.0408,-0.0454,-0.0479,-0.0508,-0.0537,-0.0556,-0.0555,-0.0564,-0.0532,-0.0508,-0.049,-0.0455,-0.0387,-0.034,-0.0338,-0.0333,-0.0353,-0.0236,-0.0164,-0.015,-0.0275,-0.0272,-0.0271,-0.0287,0,-0.0345,-0.0396,-0.0422,-0.0478,-0.0503,-0.0527,-0.056,-0.0589,-0.0602,-0.0614,-0.0578,-0.0574,-0.0528,-0.0509,-0.0438,-0.0359,-0.0312,-0.0342,-0.023,-0.0229,-0.0164,-0.0134,-0.0263,-0.0281,-0.028,-0.0278,-0.0278,0,-0.0365,-0.04,-0.0453,-0.0519,-0.0533,-0.0571,-0.0622,-0.0654,-0.0673,-0.0675,-0.0655,-0.0627,-0.056,-0.05,-0.0371,-0.0388,-0.0308,-0.0246,-0.0244,-0.0137,-0.0138,-0.0266,-0.0264,-0.0265,-0.0266,-0.0267,-0.0268,0,-0.0358,-0.0421,-0.047,-0.0491,-0.0563,-0.0591,-0.0635,-0.0676,-0.0706,-0.0703,-0.07,-0.0647,-0.0587,-0.0483,-0.0346,-0.0349,-0.0194,-0.0193,-0.0075,-0.0075,-0.0113,-0.0117,-0.0078,-0.0078,-0.0078,-0.0078,-0.0078,0,-0.0371,-0.0409,-0.0473,-0.0497,-0.0565,-0.0611,-0.0678,-0.0702,-0.0742,-0.0757,-0.0724,-0.0685,-0.0553,-0.0454,-0.0362,-0.0192,-0.0208,-0.0063,-0.0043,-0.015,-0.0158,-0.0113,-0.0116,-0.0079,-0.0079,-0.0079,-0.0079,0,-0.0364,-0.0404,-0.0464,-0.0538,-0.0566,-0.0618,-0.0711,-0.0745,-0.0772,-0.0776,-0.0764,-0.0693,-0.0547,-0.0442,-0.0266,-0.0183,-0.0057,0.0009,-0.0161,-0.0155,-0.0008,-0.0015,0.0099,0.0103,0.0105,0.0107,0.0109,0,-0.0371,-0.0397,-0.0484,-0.0522,-0.0562,-0.064,-0.0687,-0.0753,-0.0765,-0.0761,-0.0735,-0.0621,-0.0543,-0.0298,-0.0176,-0.0031,0.0025,0.0053,0.0076,0.0019,0.0025,0.0014,0.0004,0.0113,0.0114,0.0115,0.0115,0,-0.0378,-0.0409,-0.0453,-0.0518,-0.0576,-0.0645,-0.0696,-0.0709,-0.0744,-0.0763,-0.0672,-0.0565,-0.0396,-0.0245,-0.0102,0.0004,0.001,0.0081,0.0076,0.0097,0.0037,0.0038,0.0025,0.0125,0.0123,0.0122,0.0122,0,-0.0382,-0.041,-0.0454,-0.0512,-0.0579,-0.0617,-0.0661,-0.0651,-0.0679,-0.0656,-0.0616,-0.0492,-0.042,-0.0224,-0.0108,0.0022,0.005,0.0082,0.0077,0.0069,0.0093,0.0014,0.013,0,0,0,0,0,-0.0384,-0.0398,-0.0443,-0.0502,-0.0558,-0.0593,-0.0644,-0.0672,-0.0682,-0.0603,-0.0616,-0.0467,-0.0272,-0.0208,-0.0059,-0.0062,0.0066,0.0116,0.0099,0.0175,0.0164,0.021,0,0,0,0,0,0,-0.0387,-0.0418,-0.0428,-0.0467,-0.0498,-0.0556,-0.0589,-0.0603,-0.0555,-0.0553,-0.0452,-0.0416,-0.0234,-0.0346,-0.0051,-0.0016,-0.0002,0.0194,0.0197,0.0181,0.0171,0.0163,0.0206,0,0,0,0,0]}]]